Saranac Lake, NY
on Saturday, December 9, 2017

Saturday
       
Previous Day Next Day
Daily Summary
 ActualAverageRecord
Temperature
Mean Temperature °F °C 21°F -6°C  
Max Temperature 29°F -2°C 31°F -1°C 55°F 12°C (1966)
Min Temperature 12°F -11°C 12°F -11°C -22°F -30°C (2002)
Degree Days
Heating Degree Days 44 44  
Month to date heating degree days 321 376  
Since 1 July heating degree days 2378 2651  
Cooling Degree Days 0 0  
Month to date cooling degree days 0 0  
Year to date cooling degree days 69 114  
Moisture
Dew Point 17°F -8°C   
Average Humidity 85    
Maximum Humidity 100    
Minimum Humidity 69    
Precipitation
Precipitation 0.00 in / 0.00 cm 0.09 in / 2.29 cm 0.44 in / 1.12 cm (1963)
Month to date precipitation 0.59 0.81  
Year to date precipitation 42.32 36.04  
Wind
Wind Speed 2 mph / 4 km/h   
Max Wind Speed 12 mph / 19 km/h   
Max Gust Speed 13 mph / 21 km/h   
Visibility 10 miles / 16 kilometers   
Events     

Key: T is trace of precipitation, MM is missing value
Source: NWS Daily Summary
Time(EST)TemperatureDew PointHumidity Pressure Visibility Wind DirectionWind SpeedGust SpeedPrecipitationEvents Conditions
12:51 AM 19.0°F -7.2°C 12.9°F -10.6°C 77% 29.89 in / 1012.2 hPa 10.0 miles / 16.1 kilometers SW 9.2 mph / 14.8 km/h - N/A   Scattered Clouds
1:51 AM 18.0°F -7.8°C 14.0°F -10.0°C 84% 29.90 in / 1012.3 hPa 10.0 miles / 16.1 kilometers SSW 10.4 mph / 16.7 km/h - N/A   Overcast
2:51 AM 19.9°F -6.7°C 16.0°F -8.9°C 85% 29.91 in / 1012.9 hPa 10.0 miles / 16.1 kilometers SSW 6.9 mph / 11.1 km/h - N/A   Overcast
3:51 AM 21.0°F -6.1°C 15.1°F -9.4°C 78% 29.91 in / 1012.6 hPa 10.0 miles / 16.1 kilometers SSW 9.2 mph / 14.8 km/h - N/A   Overcast
4:08 AM 21.0°F -6.1°C 15.1°F -9.4°C 78% 29.83 in / 1010.0 hPa 10.0 miles / 16.1 kilometers SW 8.1 mph / 13.0 km/h - N/A   Overcast
4:51 AM 21.0°F -6.1°C 16.0°F -8.9°C 81% 29.89 in / 1012.2 hPa 10.0 miles / 16.1 kilometers SSW 5.8 mph / 9.3 km/h - N/A   Overcast
5:51 AM 21.0°F -6.1°C 16.0°F -8.9°C 81% 29.92 in / 1013.1 hPa 10.0 miles / 16.1 kilometers SW 4.6 mph / 7.4 km/h - N/A   Overcast
6:49 AM 21.2°F -6.0°C 15.8°F -9.0°C 80% 29.84 in / 1010.4 hPa 10.0 miles / 16.1 kilometers WSW 5.8 mph / 9.3 km/h - N/A   Overcast
6:51 AM 21.9°F -5.6°C 16.0°F -8.9°C 78% 29.92 in / 1013.2 hPa 10.0 miles / 16.1 kilometers WSW 5.8 mph / 9.3 km/h - N/A   Overcast
7:43 AM 21.9°F -5.6°C 17.1°F -8.3°C 82% 29.85 in / 1010.7 hPa 10.0 miles / 16.1 kilometers Calm Calm - N/A   Overcast
7:51 AM 21.9°F -5.6°C 17.1°F -8.3°C 82% 29.93 in / 1013.5 hPa 10.0 miles / 16.1 kilometers Calm Calm - N/A   Overcast
8:51 AM 23.0°F -5.0°C 17.1°F -8.3°C 78% 29.95 in / 1014.0 hPa 10.0 miles / 16.1 kilometers Calm Calm - N/A   Overcast
9:51 AM 25.0°F -3.9°C 18.0°F -7.8°C 75% 29.94 in / 1013.7 hPa 10.0 miles / 16.1 kilometers Calm Calm - N/A   Overcast
10:51 AM 27.0°F -2.8°C 19.0°F -7.2°C 72% 29.88 in / 1011.8 hPa 10.0 miles / 16.1 kilometers Calm Calm - N/A   Clear
11:51 AM 26.1°F -3.3°C 19.0°F -7.2°C 75% 29.87 in / 1011.3 hPa 10.0 miles / 16.1 kilometers Calm Calm - N/A   Clear
12:51 PM 28.0°F -2.2°C 19.9°F -6.7°C 72% 29.84 in / 1010.5 hPa 10.0 miles / 16.1 kilometers Calm Calm - N/A   Clear
1:51 PM 28.0°F -2.2°C 19.0°F -7.2°C 69% 29.82 in / 1009.7 hPa 10.0 miles / 16.1 kilometers Calm Calm - N/A   Clear
2:51 PM 28.9°F -1.7°C 19.9°F -6.7°C 69% 29.79 in / 1008.8 hPa 10.0 miles / 16.1 kilometers Calm Calm - N/A   Scattered Clouds
3:51 PM 27.0°F -2.8°C 19.9°F -6.7°C 75% 29.79 in / 1008.8 hPa 10.0 miles / 16.1 kilometers Calm Calm - N/A   Clear
4:51 PM 25.0°F -3.9°C 19.9°F -6.7°C 81% 29.78 in / 1008.3 hPa 10.0 miles / 16.1 kilometers Calm Calm - N/A   Clear
5:51 PM 23.0°F -5.0°C 19.9°F -6.7°C 88% 29.77 in / 1008.0 hPa 10.0 miles / 16.1 kilometers NNE 3.5 mph / 5.6 km/h - N/A   Clear
6:51 PM 19.9°F -6.7°C 18.0°F -7.8°C 92% 29.76 in / 1007.6 hPa 10.0 miles / 16.1 kilometers Calm Calm - N/A   Clear
7:51 PM 16.0°F -8.9°C 15.1°F -9.4°C 96% 29.75 in / 1007.2 hPa 10.0 miles / 16.1 kilometers Calm Calm - N/A   Clear
8:51 PM 17.1°F -8.3°C 17.1°F -8.3°C 100% 29.73 in / 1006.8 hPa 10.0 miles / 16.1 kilometers Calm Calm - N/A   Clear
9:51 PM 15.1°F -9.4°C 14.0°F -10.0°C 95% 29.72 in / 1006.4 hPa 10.0 miles / 16.1 kilometers Calm Calm - N/A   Clear
10:51 PM 14.0°F -10.0°C 12.9°F -10.6°C 95% 29.72 in / 1006.2 hPa 10.0 miles / 16.1 kilometers Calm Calm - N/A   Overcast
11:51 PM 12.0°F -11.1°C 10.9°F -11.7°C 95% 29.70 in / 1005.8 hPa 10.0 miles / 16.1 kilometers Calm Calm - N/A   Partly Cloudy